| time (UTC) | temp F | wind direction | speed MPH | gust MPH | rain 1hr in | rain 24hr in | rain mn in | humidity % | barometer mb |
| 20260503203052 | 63 | 212 | 12.0 | 23.0 | 0.00 | 0.00 | 0.00 | 50 | 1006.0 |
| 20260503201538 | 64 | 218 | 11.0 | 24.0 | 0.00 | 0.00 | 0.00 | 48 | 1006.2 |
| 20260503200035 | 63 | 238 | 12.0 | 27.0 | 0.00 | 0.00 | 0.00 | 47 | 1006.7 |
| 20260503194541 | 64 | 203 | 12.0 | 25.0 | 0.00 | 0.00 | 0.00 | 45 | 1006.5 |
| 20260503193038 | 64 | 214 | 16.0 | 27.0 | 0.00 | 0.00 | 0.00 | 42 | 1006.6 |
| 20260503191545 | 64 | 235 | 10.0 | 30.0 | 0.00 | 0.00 | 0.00 | 42 | 1006.7 |
| 20260503190043 | 64 | 260 | 12.0 | 23.0 | 0.00 | 0.00 | 0.00 | 41 | 1007.0 |
| 20260503184536 | 63 | 277 | 17.0 | 28.0 | 0.00 | 0.00 | 0.00 | 43 | 1007.0 |
| 20260503183036 | 62 | 217 | 12.0 | 23.0 | 0.00 | 0.00 | 0.00 | 46 | 1007.3 |
| 20260503181546 | 61 | 242 | 13.0 | 25.0 | 0.00 | 0.00 | 0.00 | 50 | 1007.6 |
| 20260503180039 | 60 | 234 | 11.0 | 17.0 | 0.00 | 0.00 | 0.00 | 53 | 1007.9 |
| 20260503174539 | 59 | 184 | 11.0 | 21.0 | 0.00 | 0.00 | 0.00 | 54 | 1008.0 |
| 20260503173037 | 58 | 257 | 9.0 | 25.0 | 0.00 | 0.00 | 0.00 | 55 | 1008.5 |
| 20260503171536 | 56 | 204 | 9.0 | 19.0 | 0.00 | 0.00 | 0.00 | 59 | 1008.8 |
| 20260503081541 | 48 | 225 | 6.0 | 11.0 | 0.00 | 0.00 | 0.00 | 51 | 1012.6 |
| 20260503080158 | 48 | 269 | 4.0 | 8.0 | 0.00 | 0.00 | 0.00 | 52 | 1012.6 |
| 20260503071536 | 47 | 248 | 5.0 | 9.0 | 0.00 | 0.00 | 0.00 | 53 | 1012.8 |
| 20260503060106 | 44 | 233 | 1.0 | 5.0 | 0.00 | 0.00 | 0.00 | 61 | 1013.4 |
| 20260503054553 | 44 | 220 | 2.0 | 6.0 | 0.00 | 0.00 | 0.00 | 61 | 1013.5 |
| 20260503053038 | 44 | 226 | 2.0 | 4.0 | 0.00 | 0.00 | 0.00 | 63 | 1013.6 |
| 20260503051539 | 43 | 228 | 2.0 | 4.0 | 0.00 | 0.00 | 0.00 | 65 | 1013.7 |
| 20260503050038 | 42 | 220 | 2.0 | 3.0 | 0.00 | 0.00 | 0.00 | 68 | 1013.8 |
| 20260503044536 | 42 | 222 | 1.0 | 3.0 | 0.00 | 0.00 | 0.00 | 70 | 1013.8 |
| 20260503043037 | 42 | 214 | 1.0 | 4.0 | 0.00 | 0.00 | 0.00 | 71 | 1013.9 |
| 20260503041535 | 42 | 223 | 1.0 | 3.0 | 0.00 | 0.00 | 0.00 | 71 | 1014.0 |
| 20260503040041 | 42 | 229 | 1.0 | 4.0 | 0.00 | 0.00 | 0.00 | 72 | 1014.1 |
| 20260503034539 | 42 | 228 | 2.0 | 4.0 | 0.00 | 0.00 | 0.00 | 72 | 1014.2 |
| 20260503033037 | 42 | 213 | 1.0 | 3.0 | 0.00 | 0.00 | 0.00 | 72 | 1014.3 |
| 20260503031539 | 42 | 216 | 2.0 | 3.0 | 0.00 | 0.00 | 0.00 | 72 | 1014.5 |
| 20260503030042 | 43 | 214 | 2.0 | 5.0 | 0.00 | 0.00 | 0.00 | 72 | 1014.6 |
| 20260503024540 | 43 | 211 | 1.0 | 5.0 | 0.00 | 0.00 | 0.00 | 71 | 1014.6 |
| 20260503023039 | 43 | 201 | 2.0 | 7.0 | 0.00 | 0.00 | 0.00 | 70 | 1014.7 |
| 20260503021541 | 43 | 212 | 2.0 | 4.0 | 0.00 | 0.00 | 0.00 | 69 | 1014.7 |
| 20260503020037 | 43 | 193 | 2.0 | 7.0 | 0.00 | 0.00 | 0.00 | 68 | 1014.6 |
| 20260503014535 | 44 | 219 | 3.0 | 6.0 | 0.00 | 0.00 | 0.00 | 67 | 1014.5 |
| 20260503013035 | 44 | 164 | 2.0 | 4.0 | 0.00 | 0.00 | 0.00 | 65 | 1014.6 |
| 20260503011539 | 45 | 167 | 1.0 | 3.0 | 0.00 | 0.00 | 0.00 | 63 | 1014.5 |
| 20260503010039 | 45 | 213 | 1.0 | 4.0 | 0.00 | 0.00 | 0.00 | 62 | 1014.5 |
| 20260503004537 | 46 | 233 | 1.0 | 4.0 | 0.00 | 0.00 | 0.00 | 59 | 1014.5 |
| 20260503003037 | 48 | 156 | 3.0 | 6.0 | 0.00 | 0.00 | 0.00 | 56 | 1014.6 |
| 20260503001536 | 49 | 156 | 2.0 | 6.0 | 0.00 | 0.00 | 0.00 | 54 | 1014.8 |
| 20260503000035 | 49 | 219 | 4.0 | 7.0 | 0.00 | 0.00 | 0.00 | 53 | 1014.6 |
| 20260502234549 | 49 | 162 | 1.0 | 7.0 | 0.00 | 0.00 | 0.00 | 52 | 1014.9 |
| 20260502233039 | 50 | 158 | 5.0 | 9.0 | 0.00 | 0.00 | 0.00 | 50 | 1015.2 |
| 20260502231538 | 50 | 152 | 4.0 | 10.0 | 0.00 | 0.00 | 0.00 | 49 | 1015.3 |
| 20260502230036 | 50 | 200 | 4.0 | 12.0 | 0.00 | 0.00 | 0.00 | 49 | 1015.4 |
| 20260502224535 | 51 | 203 | 6.0 | 11.0 | 0.00 | 0.00 | 0.00 | 49 | 1015.5 |
| 20260502223040 | 51 | 115 | 3.0 | 8.0 | 0.00 | 0.00 | 0.00 | 49 | 1015.6 |
| 20260502221541 | 50 | 129 | 4.0 | 11.0 | 0.00 | 0.00 | 0.00 | 49 | 1015.7 |
| 20260502220038 | 51 | 134 | 6.0 | 13.0 | 0.00 | 0.00 | 0.00 | 48 | 1015.7 |
| 20260502214542 | 52 | 146 | 4.0 | 8.0 | 0.00 | 0.00 | 0.00 | 45 | 1015.9 |
| 20260502213035 | 52 | 172 | 4.0 | 11.0 | 0.00 | 0.00 | 0.00 | 46 | 1016.0 |
| 20260502211538 | 52 | 118 | 4.0 | 11.0 | 0.00 | 0.00 | 0.00 | 47 | 1016.2 |
| 20260502210040 | 51 | 174 | 4.0 | 10.0 | 0.00 | 0.00 | 0.00 | 49 | 1016.3 |
| 20260502204538 | 51 | 136 | 5.0 | 12.0 | 0.00 | 0.00 | 0.00 | 48 | 1016.4 |